Weather History for New Richmond, WI

Change the Weather History Date:

Friday, October 5, 2012

  Actual Average (KMSP) Record (KMSP)
Temperature  
Mean Temperature 38 °F 53 °F  
Max Temperature 42 °F 63 °F 88 °F (2011)
Min Temperature 33 °F 44 °F 25 °F (1952)
Degree Days  
Heating Degree Days 28 12  
Month to date heating degree days 56  
Since 1 July heating degree days 229  
Cooling Degree Days 0 0  
Month to date cooling degree days 3  
Year to date cooling degree days 750  
Moisture  
Dew Point 27 °F    
Average Humidity 62    
Maximum Humidity 81    
Minimum Humidity 49    
Precipitation  
Precipitation 0.00 in 0.09 in 2.31 in (1911)
Month to date precipitation 0.49  
Year to date precipitation 25.74  
Snow  
Snow 0.00 in 0.00 in T in (1952)
Month to date snowfall 0.0  
Since 1 July snowfall T  
Since 1 September snowfall T  
Snow Depth -    
Sea Level Pressure  
Sea Level Pressure 30.09 in    
Wind  
Wind Speed 18 mph (WNW)    
Max Wind Speed 25 mph    
Max Gust Speed 32 mph    
Visibility 10 miles    
Events      
T = Trace of Precipitation, MM = Missing Value Source: NWS Daily Summary

Daily Weather History Graph

Daily Weather History Graph

Search for Another Location

Airport:

Trip Planner

Search our weather history database for the weather conditions in past years. The results will help you decide how hot, cold, wet, or windy it might be!

Date:

Astronomy

Oct. 05, 2012 Rise Set
Actual Time 7:13 AM CDT 6:42 PM CDT
Civil Twilight 6:44 AM CDT 7:11 PM CDT
Nautical Twilight 6:10 AM CDT 7:45 PM CDT
Astronomical Twilight 5:35 AM CDT 8:19 PM CDT
Moon 9:53 PM CDT (10/5) 12:34 PM CDT (10/5)
Length of Visible Light 12h 27m
Length of Day
11h 28m
Waning Gibbous, 74% of the Moon is Illuminated
Oct 5
Waning Gibbous
Oct 8
Last Quarter
Oct 15
New
Oct 21
First Quarter
Oct 29
Full

Hourly Weather History & Observations

Time (CDT) Temp. Windchill Dew Point Humidity Pressure Visibility Wind Dir Wind Speed Gust Speed Precip Events Conditions
12:15 AM 41.0 °F 32.2 °F 30.2 °F 65% 30.11 in 10.0 mi WNW 18.4 mph 27.6 mph N/A   Overcast
12:35 AM 41.0 °F 31.9 °F 28.4 °F 61% 30.10 in 10.0 mi WNW 19.6 mph 29.9 mph N/A   Overcast
12:55 AM 41.0 °F 31.4 °F 28.4 °F 61% 30.10 in 10.0 mi West 21.9 mph 32.2 mph N/A   Overcast
1:15 AM 41.0 °F 32.2 °F 28.4 °F 61% 30.10 in 10.0 mi West 18.4 mph 28.8 mph N/A   Overcast
1:35 AM 41.0 °F 32.5 °F 28.4 °F 61% 30.10 in 10.0 mi West 17.3 mph 27.6 mph N/A   Overcast
1:55 AM 41.0 °F 32.5 °F 30.2 °F 65% 30.10 in 10.0 mi West 17.3 mph - N/A   Overcast
2:15 AM 41.0 °F 31.9 °F 30.2 °F 65% 30.10 in 10.0 mi West 19.6 mph - N/A   Overcast
2:35 AM 41.0 °F 31.4 °F 30.2 °F 65% 30.09 in 10.0 mi West 21.9 mph 26.5 mph N/A   Overcast
2:55 AM 41.0 °F 32.5 °F 30.2 °F 65% 30.09 in 10.0 mi West 17.3 mph 24.2 mph N/A   Overcast
3:15 AM 41.0 °F 31.9 °F 28.4 °F 61% 30.09 in 10.0 mi West 19.6 mph 26.5 mph N/A   Overcast
3:35 AM 39.2 °F 29.3 °F 28.4 °F 65% 30.09 in 10.0 mi West 20.7 mph 28.8 mph N/A   Overcast
3:55 AM 39.2 °F 29.8 °F 26.6 °F 61% 30.08 in 10.0 mi West 18.4 mph 25.3 mph N/A   Overcast
4:15 AM 39.2 °F 30.8 °F 26.6 °F 61% 30.09 in 10.0 mi West 15.0 mph - N/A   Overcast
4:35 AM 37.4 °F 27.8 °F 26.6 °F 65% 30.09 in 10.0 mi West 17.3 mph 27.6 mph N/A   Overcast
4:55 AM 37.4 °F 29.3 °F 26.6 °F 65% 30.09 in 10.0 mi WNW 12.7 mph 16.1 mph N/A   Overcast
5:15 AM 37.4 °F 28.9 °F 28.4 °F 70% 30.09 in 10.0 mi West 13.8 mph - N/A   Overcast
5:35 AM 37.4 °F 27.8 °F 28.4 °F 70% 30.07 in 10.0 mi West 17.3 mph 23.0 mph N/A   Mostly Cloudy
5:55 AM 35.6 °F 26.2 °F 28.4 °F 75% 30.07 in 10.0 mi West 15.0 mph 21.9 mph N/A   Clear
6:15 AM 35.6 °F 26.6 °F 28.4 °F 75% 30.07 in 10.0 mi West 13.8 mph 23.0 mph N/A   Clear
6:35 AM 33.8 °F 23.9 °F 28.4 °F 81% 30.07 in 10.0 mi West 15.0 mph 21.9 mph N/A   Clear
6:55 AM 33.8 °F 23.5 °F 28.4 °F 81% 30.07 in 10.0 mi West 16.1 mph - N/A   Clear
7:15 AM 33.8 °F 22.5 °F 28.4 °F 81% 30.08 in 10.0 mi West 19.6 mph 24.2 mph N/A   Clear
7:35 AM 33.8 °F 23.9 °F 28.4 °F 81% 30.09 in 10.0 mi West 15.0 mph 23.0 mph N/A   Clear
7:55 AM 35.6 °F 26.6 °F 28.4 °F 75% 30.09 in 10.0 mi West 13.8 mph 20.7 mph N/A   Mostly Cloudy
8:15 AM 35.6 °F 25.5 °F 28.4 °F 75% 30.09 in 10.0 mi West 17.3 mph 20.7 mph N/A   Overcast
8:35 AM 35.6 °F 25.9 °F 28.4 °F 75% 30.09 in 10.0 mi West 16.1 mph 20.7 mph N/A   Mostly Cloudy
8:55 AM 35.6 °F 25.5 °F 28.4 °F 75% 30.09 in 10.0 mi West 17.3 mph 23.0 mph N/A   Scattered Clouds
9:15 AM 37.4 °F 27.2 °F 28.4 °F 70% 30.10 in 10.0 mi West 19.6 mph 26.5 mph N/A   Mostly Cloudy
9:35 AM 37.4 °F 27.5 °F 28.4 °F 70% 30.09 in 10.0 mi West 18.4 mph 29.9 mph N/A   Scattered Clouds
9:55 AM 39.2 °F 29.0 °F 26.6 °F 61% 30.09 in 10.0 mi West 21.9 mph 27.6 mph N/A   Scattered Clouds
10:15 AM 39.2 °F 28.3 °F 26.6 °F 61% 30.08 in 10.0 mi West 25.3 mph 29.9 mph N/A   Scattered Clouds
10:35 AM 41.0 °F 30.7 °F 26.6 °F 57% 30.09 in 10.0 mi West 25.3 mph 29.9 mph N/A   Mostly Cloudy
10:55 AM 41.0 °F 32.5 °F 26.6 °F 57% 30.09 in 10.0 mi West 17.3 mph 27.6 mph N/A   Overcast
11:15 AM 41.0 °F 31.4 °F 26.6 °F 57% 30.09 in 10.0 mi WNW 21.9 mph 28.8 mph N/A   Overcast
11:35 AM 41.0 °F 33.1 °F 26.6 °F 57% 30.09 in 10.0 mi WNW 15.0 mph 31.1 mph N/A   Mostly Cloudy
11:55 AM 42.8 °F 34.5 °F 26.6 °F 53% 30.08 in 10.0 mi West 18.4 mph 29.9 mph N/A   Overcast
12:15 PM 42.8 °F 34.8 °F 26.6 °F 53% 30.09 in 10.0 mi West 17.3 mph 27.6 mph N/A   Overcast
12:35 PM 42.8 °F 34.3 °F 26.6 °F 53% 30.08 in 10.0 mi West 19.6 mph 27.6 mph N/A   Overcast
12:55 PM 42.8 °F 34.8 °F 26.6 °F 53% 30.07 in 10.0 mi WNW 17.3 mph 25.3 mph N/A   Overcast
1:35 PM 42.8 °F 34.3 °F 26.6 °F 53% 30.07 in 10.0 mi West 19.6 mph 26.5 mph N/A   Overcast
1:55 PM 42.8 °F 34.0 °F 24.8 °F 49% 30.07 in 10.0 mi WNW 20.7 mph 26.5 mph N/A   Overcast
2:15 PM 42.8 °F 34.0 °F 26.6 °F 53% 30.06 in 10.0 mi WNW 20.7 mph 32.2 mph N/A   Overcast
2:35 PM 42.8 °F 33.5 °F 24.8 °F 49% 30.07 in 10.0 mi WNW 23.0 mph 31.1 mph N/A   Overcast
2:55 PM 42.8 °F 33.3 °F 24.8 °F 49% 30.06 in 10.0 mi WNW 24.2 mph 28.8 mph N/A   Overcast
3:15 PM 42.8 °F 33.8 °F 24.8 °F 49% 30.07 in 10.0 mi WNW 21.9 mph 28.8 mph N/A   Overcast
3:35 PM 41.0 °F 31.6 °F 24.8 °F 53% 30.07 in 10.0 mi WNW 20.7 mph 31.1 mph N/A   Overcast
3:55 PM 41.0 °F 31.6 °F 24.8 °F 53% 30.07 in 10.0 mi NW 20.7 mph 27.6 mph N/A   Overcast
4:15 PM 41.0 °F 31.9 °F 24.8 °F 53% 30.07 in 10.0 mi NW 19.6 mph 27.6 mph N/A   Overcast
4:35 PM 41.0 °F 32.5 °F 24.8 °F 53% 30.08 in 10.0 mi WNW 17.3 mph 24.2 mph N/A   Overcast
4:55 PM 41.0 °F 30.9 °F 24.8 °F 53% 30.08 in 10.0 mi WNW 24.2 mph 29.9 mph N/A   Overcast
5:15 PM 41.0 °F 31.1 °F 24.8 °F 53% 30.08 in 10.0 mi NW 23.0 mph 28.8 mph N/A   Overcast
5:35 PM 39.2 °F 29.8 °F 23.0 °F 52% 30.09 in 10.0 mi WNW 18.4 mph 26.5 mph N/A   Overcast
5:55 PM 39.2 °F 30.5 °F 23.0 °F 52% 30.09 in 10.0 mi WNW 16.1 mph 26.5 mph N/A   Overcast
6:15 PM 39.2 °F 29.8 °F 23.0 °F 52% 30.09 in 10.0 mi West 18.4 mph 24.2 mph N/A   Overcast
6:35 PM 39.2 °F 30.5 °F 23.0 °F 52% 30.09 in 10.0 mi WNW 16.1 mph 26.5 mph N/A   Overcast
6:55 PM 39.2 °F 30.5 °F 24.8 °F 56% 30.09 in 10.0 mi West 16.1 mph 20.7 mph N/A   Overcast
7:15 PM 39.2 °F 30.2 °F 24.8 °F 56% 30.09 in 10.0 mi WNW 17.3 mph 24.2 mph N/A   Overcast
7:35 PM 39.2 °F 30.8 °F 24.8 °F 56% 30.09 in 10.0 mi WNW 15.0 mph 23.0 mph N/A   Overcast
7:55 PM 39.2 °F 31.6 °F 24.8 °F 56% 30.10 in 10.0 mi WNW 12.7 mph 23.0 mph N/A   Overcast
8:15 PM 39.2 °F 30.8 °F 24.8 °F 56% 30.10 in 10.0 mi WNW 15.0 mph 21.9 mph N/A   Overcast
8:35 PM 39.2 °F 30.5 °F 26.6 °F 61% 30.10 in 10.0 mi WNW 16.1 mph 25.3 mph N/A   Overcast
8:55 PM 37.4 °F 27.5 °F 26.6 °F 65% 30.11 in 10.0 mi WNW 18.4 mph 27.6 mph N/A   Overcast
9:15 PM 37.4 °F 28.5 °F 26.6 °F 65% 30.10 in 10.0 mi WNW 15.0 mph 20.7 mph N/A   Scattered Clouds
9:35 PM 37.4 °F 27.5 °F 26.6 °F 65% 30.11 in 10.0 mi WNW 18.4 mph - N/A   Scattered Clouds
9:55 PM 37.4 °F 29.3 °F 26.6 °F 65% 30.11 in 10.0 mi WNW 12.7 mph 20.7 mph N/A   Mostly Cloudy
10:35 PM 37.4 °F 28.9 °F 26.6 °F 65% 30.11 in 10.0 mi WNW 13.8 mph 21.9 mph N/A   Overcast
10:55 PM 37.4 °F 29.3 °F 26.6 °F 65% 30.11 in 10.0 mi WNW 12.7 mph 25.3 mph N/A   Overcast
11:15 PM 37.4 °F 27.8 °F 26.6 °F 65% 30.11 in 10.0 mi WNW 17.3 mph 23.0 mph N/A   Overcast
11:35 PM 35.6 °F 26.2 °F 26.6 °F 70% 30.11 in 10.0 mi WNW 15.0 mph 20.7 mph N/A   Overcast
11:55 PM 35.6 °F 25.5 °F 26.6 °F 70% 30.11 in 10.0 mi WNW 17.3 mph 20.7 mph N/A   Overcast